Preview of NWS' New Version of Forecast
This preview is not operational and should not be used for support decisions.

Regional Weather Roundup (RWR)

Issued by National Weather Service (NWS)

                            
000
ASUS45 KABQ 182310
RWRNM 
NEW MEXICO REGIONAL WEATHER ROUNDUP
NATIONAL WEATHER SERVICE ALBUQUERQUE NM
500 PM MDT THU JUL 18 2019

NOTE: "FAIR" MEANS FEW OR NO CLOUDS BELOW 12,000 FEET AGL WITH NO
       SIGNIFICANT WEATHER OR OBSTRUCTIONS TO VISION.

      THIS PRODUCT IS RELEASED AS TWO VERSIONS.  ONE VERSION NEAR
      THE TOP OF THE HOUR CONTAINING PRELIMINARY DATA FROM ALBUQUERQUE
      AND OTHER STATIONS.  A FINAL VERSION WITH ADDITIONAL DATA IS 
      ISSUED ABOUT 10 MINUTES AFTER THE HOUR.
 
NMZ501-503-504-510>518-190000-
NORTHWEST PLATEAU/NORTHCENTRAL MOUNTAINS
  
CITY           SKY/WX    TMP DP  RH WIND       PRES   REMARKS
FARMINGTON     FAIR      96  30   9 W15G25    30.04F                  
LOS ALAMOS       N/A     89  28  11 W7        30.17F                  
SANTA FE       FAIR      94  31  10 E6        30.07F                  
TAOS           FAIR      91  31  11 W8        30.16S                  
ANGEL FIRE       N/A     80  35  19 W9        30.27F                  

$$
NMZ402-403-502-505>509-190000-
WESTCENTRAL MOUNTAINS/SOUTHWEST MOUNTAINS
  
CITY           SKY/WX    TMP DP  RH WIND       PRES   REMARKS
GALLUP         FAIR      92  32  12 NW12G17   30.14F                  
GRANTS         FAIR      93  32  11 NW12      30.14F                  
SILVER CITY    CLOUDY    69  58  68 N24       30.12F                  

$$
NMZ407-409-411-412-190000-
SOUTHERN DESERTS
  
CITY           SKY/WX    TMP DP  RH WIND       PRES   REMARKS
DEMING         FAIR      91  46  21 N18G32    29.98R THUNDER          
LAS CRUCES     FAIR      96  50  20 S7        29.96F                  
ALAMOGORDO     PTSUNNY   82  57  42 NE13G18   29.96F                  
T OR C         FAIR      97  41  14 W9        29.96F                  

$$
NMZ519>523-190000-
CENTRAL VALLEYS/CENTRAL HIGHLANDS
  
CITY           SKY/WX    TMP DP  RH WIND       PRES   REMARKS
ALBUQUERQUE    FAIR      99  32   9 NW17      29.99F                  
DOUBLE EAGLE   MOSUNNY   97  32  10 VRB7      30.04F                  
MORIARTY ARPT  FAIR      96  28   9 N13G20    30.08F                  
CLINES CORNERS FAIR      90  32  12 W15G22    30.16F                  
BELEN          FAIR      98  30   9 SW9       29.98F                  
SOCORRO        FAIR      99  31   9 W3        29.95F                  

$$
NMZ524>526-539-540-190000-
SOUTHCENTRAL MOUNTAINS
  
CITY           SKY/WX    TMP DP  RH WIND       PRES   REMARKS
RUIDOSO        FAIR      86  39  19 S8        30.19S                  

$$
NMZ527>531-190000-
NORTHEAST HIGHLANDS/NORTHEAST PLAINS
  
CITY           SKY/WX    TMP DP  RH WIND       PRES   REMARKS
LAS VEGAS      FAIR      91  35  13 NE6       30.11F                  
RATON          FAIR      95  37  13 S20G25    30.03F                  
CLAYTON        FAIR      97  42  15 S9        29.93F                  

$$
NMZ532>537-190000-
EASTCENTRAL PLAINS
  
CITY           SKY/WX    TMP DP  RH WIND       PRES   REMARKS
SANTA ROSA     FAIR     103  36  10 S12       29.90F HX  97           
TUCUMCARI      FAIR     103  43  13 MISG      29.83F HX  98           
CANNON AFB     FAIR     100  42  13 SW9       29.90F HX  96           
CLOVIS AIRPORT FAIR     102  45  14 SW13      29.89F HX  98           

$$
NMZ028-029-538-190000-
SOUTHEAST PLAINS
  
CITY           SKY/WX    TMP DP  RH WIND       PRES   REMARKS
ROSWELL        FAIR     105  45  13 S14       29.84F HX 101           
ARTESIA        FAIR     102  52  18 E9G20     29.86F HX 100           
CARLSBAD       FAIR     103  52  18 S12G23    29.83F HX 100           
HOBBS          MOSUNNY  100  48  17 SE10G18   29.90F HX  97           


$$